SCP
0 0 0 0 0 0 0 0 0 0 0 0 0 0 0 0 0 0 0 1 2 2 2 1 1 1 2 2 3 2 1 1 1 1 0 0 0 0 0 0 0 0 0 0
0 0 0 0 0 0 0 0 0 0 0 0 0 0 0 0 0 0 0 1 1 1 1 1 1 1 1 2 2 2 2 1 1 1 0 0 0 0 0 0 0 0 0 0
0 0 0 0 0 0 0 0 0 0 0 0 0 0 0 0 0 0 0 0 1 1 0 0 0 0 1 1 2 2 2 2 1 1 0 0 0 0 0 0 0 0 0 0
0 0 0 0 0 0 0 0 0 0 0 0 0 0 0 0 0 0 0 0 0 0 0 0 0 0 0 1 1 2 2 2 1 1 0 0 0 0 0 0 0 0 0 0
0 0 0 0 0 0 0 0 0 0 0 0 0 0 0 0 0 0 0 0 0 0 0 0 0 0 0 0 1 2 3 2 2 1 1 0 0 0 0 0 0 0 0 0
0 0 0 0 0 0 0 0 0 0 0 0 0 0 0 0 0 0 0 0 0 0 0 0 0 0 0 0 1 2 3 3 2 1 1 0 0 0 0 0 0 0 1 1
0 0 0 0 0 0 0 0 0 0 0 0 0 0 0 0 0 0 0 0 0 0 0 0 0 0 0 0 1 2 3 3 2 2 1 0 0 0 0 0 0 0 1 1
0 0 0 0 0 0 0 0 0 0 0 0 0 0 0 0 0 0 0 0 0 0 0 0 0 0 0 0 1 2 3 3 3 2 1 1 0 0 0 0 0 0 1 1
0 0 0 0 0 0 0 0 0 0 0 0 0 0 0 0 0 0 0 0 0 0 0 0 0 0 0 0 0 1 2 3 3 2 2 1 0 0 0 0 0 0 1 1
0 0 0 0 0 0 0 0 0 0 0 0 0 0 0 0 0 0 0 0 0 0 0 0 0 0 0 0 0 0 1 1 2 2 2 1 0 0 0 0 0 0 0 0
0 0 0 0 0 0 0 0 0 0 0 0 0 0 0 0 0 0 0 0 0 0 0 0 0 0 0 0 0 0 0 0 1 1 1 1 0 0 0 0 0 0 0 0
0 0 0 0 0 0 0 0 0 0 0 0 0 0 0 0 0 0 0 0 0 0 0 0 0 0 0 0 0 0 0 0 0 0 0 0 0 0 0 0 0 0 0 0
0 0 0 0 0 0 0 0 0 0 0 0 0 0 0 0 0 0 0 0 0 0 0 0 0 0 0 0 0 0 0 0 0 0 0 0 0 0 0 0 0 0 0 0
0 0 0 0 0 0 0 0 0 0 0 0 0 0 0 0 0 0 0 0 0 0 0 0 0 0 0 0 0 0 0 0 0 0 0 0 0 0 0 0 0 0 0 0
0 0 0 0 0 0 0 0 0 0 0 0 0 0 0 0 0 0 0 0 0 0 0 0 0 0 0 0 0 0 0 0 0 0 0 0 0 0 0 0 0 0 0 0
0 0 0 0 0 0 0 0 0 0 0 0 0 0 0 0 0 0 0 0 0 0 0 0 0 0 0 0 0 0 0 0 0 0 0 0 0 0 0 0 0 0 0 0
0 0 0 0 0 0 0 0 0 0 0 0 0 0 0 0 0 0 0 0 0 0 0 0 0 0 0 0 0 0 0 0 0 0 0 0 0 0 0 0 0 0 0 0
0 0 0 0 0 0 0 0 0 0 0 0 0 0 0 0 0 0 0 0 0 0 0 0 0 0 0 0 0 0 0 0 0 0 0 0 0 0 0 0 0 0 0 0
0 0 0 0 0 0 0 0 0 0 0 0 0 0 0 0 0 0 0 0 0 0 0 0 0 0 0 0 0 0 0 0 0 0 0 0 0 0 0 0 0 0 0 0
0 0 0 0 0 0 0 0 0 0 0 0 0 0 0 0 0 0 0 0 0 0 0 0 0 0 0 0 0 0 0 0 0 0 0 0 0 0 0 0 0 0 0 0
0 0 0 0 0 0 0 0 0 0 0 0 0 0 0 0 0 0 0 0 0 0 0 0 0 0 0 0 0 0 0 0 0 0 0 0 0 0 0 0 0 0 0 0
0 0 0 0 0 0 0 0 0 0 0 0 0 0 0 0 0 0 0 0 0 0 0 0 0 0 0 0 0 0 0 0 0 0 0 0 0 0 0 0 0 0 0 0
0 0 0 0 0 0 0 0 0 0 0 0 0 0 0 0 0 0 0 0 0 0 0 0 0 0 0 0 0 0 0 0 0 0 0 0 0 0 0 0 0 0 0 0
0 0 0 0 0 0 0 0 0 0 0 0 0 0 0 0 0 0 0 0 0 0 0 0 0 0 0 0 0 0 0 0 0 0 0 0 0 0 0 0 0 0 0 0
0 0 0 0 0 0 0 0 0 0 0 0 0 0 0 0 0 0 0 0 0 0 0 0 0 0 0 0 0 0 0 0 0 0 0 0 0 0 0 0 0 0 0 0
0 0 0 0 0 0 0 0 0 0 0 0 0 0 0 0 0 0 0 0 0 0 0 0 0 0 0 0 0 0 0 0 0 0 0 0 0 0 0 0 0 0 0 0
Wind_Speed
1 2 3 6 6 3 2 3 5 6 3 2 7 11 12 9 5 6 6 5 6 7 5 3 3 3 2 3 4 5 5 4 4 3 2 2 1 1 1 0 1 2 3 3
2 4 7 3 3 2 3 4 5 5 2 3 6 12 11 7 6 7 7 7 6 5 3 2 2 2 3 4 5 5 5 5 4 3 2 2 2 2 1 1 1 2 3 3
6 4 2 4 3 3 5 5 5 5 4 2 5 9 6 4 4 4 5 5 5 6 5 3 3 3 3 4 5 5 5 5 4 4 3 3 2 2 1 0 1 1 3 3
5 4 2 3 4 5 5 5 5 4 2 4 1 6 8 4 4 4 5 4 5 5 4 4 3 3 3 4 4 4 5 5 4 5 4 4 3 2 2 2 2 1 2 3
4 2 3 4 5 6 5 2 2 3 3 3 2 3 10 3 4 5 5 5 4 3 4 4 4 4 3 3 3 4 4 4 4 4 4 4 2 1 1 2 2 2 1 2
4 2 3 4 2 4 2 2 2 2 2 3 4 5 9 4 6 5 4 4 3 3 3 3 2 2 2 2 3 3 4 3 3 3 3 4 4 3 3 2 2 2 1 1
3 3 2 2 1 1 2 3 3 4 2 6 2 4 10 7 4 4 5 5 4 2 2 2 2 2 2 3 3 3 4 3 3 4 3 4 4 4 4 3 3 2 1 1
2 5 3 3 5 4 3 5 5 4 5 5 2 7 9 4 3 3 3 2 1 1 2 2 3 3 3 3 3 3 3 3 3 4 3 2 3 3 2 2 2 3 2 2
5 5 1 2 2 5 4 4 3 3 1 4 6 7 9 1 2 2 1 1 1 1 1 2 1 2 2 3 3 4 3 2 2 3 3 2 2 2 2 2 2 2 1 1
4 4 2 1 2 0 3 5 4 3 3 5 6 5 6 4 3 2 1 1 2 1 1 1 1 1 1 2 2 3 3 3 2 2 2 2 2 2 2 2 2 2 1 1
3 3 3 1 5 6 4 3 3 3 3 4 5 7 4 4 3 3 3 3 3 2 2 2 1 1 1 2 2 2 2 2 1 1 1 1 1 2 2 2 2 2 2 2
3 3 4 6 3 2 5 6 7 4 5 4 3 8 3 2 3 2 2 2 1 2 2 2 2 1 1 1 1 2 2 2 2 2 1 1 1 1 2 2 2 2 2 2
4 4 1 3 1 1 3 4 5 4 3 4 5 9 2 2 3 2 2 2 1 0 0 1 1 1 1 1 1 2 2 2 2 2 2 1 1 2 2 2 2 2 2 2
3 4 7 8 5 4 4 4 5 6 5 6 10 10 8 5 5 4 3 2 1 1 1 1 1 1 2 2 2 2 2 2 2 2 2 2 3 3 3 2 2 2 3 3
3 4 5 6 4 3 6 8 8 10 10 10 9 9 11 7 5 4 3 2 1 1 1 2 2 2 2 2 2 2 2 2 2 2 2 3 2 2 2 2 2 2 3 3
2 4 3 5 5 5 8 10 12 12 10 10 9 12 8 5 3 3 4 3 3 3 3 3 2 2 3 3 3 2 2 2 2 2 3 2 2 2 2 3 2 2 2 3
4 4 3 4 2 3 9 10 11 7 7 8 11 11 4 4 4 4 4 3 4 4 4 3 4 4 4 4 4 4 3 2 2 2 2 2 2 2 3 2 2 3 3 3
6 5 3 2 1 9 7 2 5 6 5 6 6 5 4 4 4 3 3 4 4 4 3 4 3 3 3 3 3 2 2 2 2 2 2 2 2 2 2 2 3 4 3 3
7 7 4 4 5 8 5 2 3 5 5 4 5 5 4 2 2 3 3 3 4 4 4 4 3 3 2 2 2 2 2 2 2 3 3 3 3 3 3 4 4 4 3 3
3 4 4 4 5 7 4 2 2 2 4 2 2 3 2 1 1 4 4 3 3 2 2 2 1 1 1 2 2 2 2 2 3 4 4 3 3 3 4 4 4 3 3 4
3 3 6 6 6 7 4 1 2 3 4 2 1 2 2 2 4 4 4 4 3 3 2 2 1 1 2 2 2 2 2 4 4 3 2 2 3 4 4 3 3 3 3 3
6 5 5 4 6 7 1 2 3 4 2 1 1 1 2 2 3 3 3 3 3 3 3 2 1 1 1 1 2 2 3 4 2 2 2 3 3 3 3 3 3 2 3 3
5 6 4 6 5 2 1 2 2 1 1 2 2 2 1 2 3 3 3 3 3 3 3 3 1 2 2 1 2 3 4 2 2 2 3 3 3 3 2 3 3 2 3 3
2 1 2 3 4 4 3 2 2 2 2 2 2 2 1 2 3 3 3 3 3 3 3 2 2 2 3 2 2 3 3 2 2 2 3 2 2 3 2 2 3 3 3 4
4 2 2 4 4 3 3 3 3 3 2 2 2 1 2 2 3 3 3 4 4 4 3 2 2 3 4 3 3 3 2 2 2 2 3 3 3 3 3 3 4 4 5 5
3 4 4 5 4 3 4 4 3 2 3 3 3 3 3 2 3 3 3 3 3 3 3 2 3 3 3 3 3 3 3 2 2 2 3 3 2 2 3 3 3 6 7 9
Wind_Direction
118 101 215 218 205 206 201 225 263 265 266 264 259 271 278 279 266 260 257 247 245 247 252 236 206 188 170 169 165 171 160 159 144 133 135 135 150 147 133 140 174 146 133 130
62 246 238 215 186 201 229 258 272 287 282 250 279 278 272 259 245 243 247 248 243 252 271 251 213 173 176 182 176 170 168 166 159 152 158 145 147 147 143 155 169 159 142 138
195 238 196 175 190 207 236 229 247 268 318 305 311 298 278 268 240 251 251 244 239 231 231 228 215 205 185 189 185 176 172 166 159 146 120 99 81 75 78 152 179 174 155 151
232 250 207 196 212 191 248 229 223 242 290 291 352 296 289 276 284 264 261 256 248 238 218 212 203 197 191 197 182 169 165 162 157 148 146 142 144 153 189 188 172 147 137 143
244 218 196 216 223 184 223 241 209 214 200 280 242 243 283 301 280 270 261 257 249 234 207 207 206 199 184 170 166 162 153 153 151 153 150 138 131 140 136 128 130 123 109 131
241 232 207 214 215 182 182 62 64 61 87 271 221 201 278 254 237 258 259 259 248 225 202 201 190 148 132 136 147 149 152 159 154 151 150 152 153 142 134 137 144 136 123 131
295 254 225 176 122 70 102 92 24 350 334 254 208 211 251 257 243 236 243 245 243 212 176 161 152 155 151 152 157 159 156 163 166 163 169 173 168 165 172 173 171 165 162 182
256 280 227 193 182 177 183 156 164 212 242 280 268 236 252 263 278 264 246 225 203 193 180 175 182 176 175 171 160 154 157 160 168 168 172 168 154 164 178 177 171 177 185 195
199 254 276 192 188 153 156 190 174 145 254 275 267 276 295 298 338 348 18 73 197 217 208 194 180 172 179 179 177 171 167 165 165 167 160 153 152 165 177 172 161 166 172 171
175 249 269 273 104 50 162 150 122 154 206 262 280 263 254 284 294 314 314 248 248 250 244 215 182 166 170 176 179 168 163 168 171 161 162 163 173 185 180 167 169 174 175 166
161 201 292 280 199 189 151 158 161 167 187 199 267 270 230 222 250 248 251 243 235 222 214 214 196 157 117 100 115 134 142 137 145 159 158 150 161 182 171 175 191 189 177 174
172 154 242 246 239 193 185 184 164 180 224 202 222 268 273 236 272 255 266 280 270 232 214 201 182 148 124 130 135 143 147 153 174 166 145 156 167 169 164 176 190 183 179 184
154 156 262 323 321 185 214 200 188 167 158 190 209 258 287 344 341 324 298 292 285 247 181 131 143 169 175 178 178 173 172 178 173 164 157 165 188 191 196 200 196 186 184 184
143 181 197 214 226 187 218 216 189 176 204 227 229 253 282 301 311 313 310 293 270 247 201 165 198 224 217 205 199 195 194 181 172 167 168 190 209 210 209 204 200 202 195 192
144 218 236 253 259 225 230 230 214 215 217 224 242 243 262 272 271 277 287 292 283 266 245 226 225 233 232 224 219 209 204 188 175 170 190 215 221 212 206 204 203 205 207 210
165 217 224 259 252 248 260 247 231 233 231 237 256 265 261 271 276 278 278 276 267 256 250 246 239 234 236 228 221 212 212 206 177 187 216 225 207 201 209 215 210 206 216 217
187 174 189 249 264 313 262 229 212 213 211 203 230 246 258 275 269 258 256 252 245 250 253 245 238 233 235 230 214 208 210 194 184 202 217 221 216 218 225 224 217 221 223 220
183 175 190 219 143 238 245 200 189 203 230 222 234 253 246 252 273 274 254 240 253 256 253 251 246 246 245 231 219 208 186 177 190 210 222 219 213 226 232 224 228 232 229 228
191 177 185 189 224 265 283 251 178 193 251 233 231 254 275 297 347 315 290 252 243 251 252 249 244 240 245 236 217 182 190 190 198 220 227 224 213 217 224 230 236 235 228 235
163 171 183 190 212 238 246 254 215 138 265 280 205 234 258 83 301 280 301 306 292 287 281 272 275 275 239 247 194 170 204 209 227 234 234 229 220 221 230 237 241 241 230 239
144 178 205 214 232 256 256 273 110 171 255 305 253 246 241 226 232 267 305 319 318 319 318 314 319 265 240 220 166 184 213 234 242 242 238 238 234 233 235 238 240 236 237 243
178 181 198 194 220 247 263 116 178 236 287 309 298 262 250 260 291 303 311 314 326 332 332 331 327 302 280 206 169 210 248 258 260 243 244 250 248 245 241 228 239 235 227 238
199 192 191 202 223 270 256 232 258 241 307 302 291 279 253 288 298 303 306 309 312 310 311 311 298 304 302 255 197 226 260 263 248 243 249 254 256 249 237 228 233 237 226 232
254 195 182 249 272 294 299 305 316 319 293 284 280 289 296 285 289 298 305 309 311 308 303 304 308 305 302 294 266 253 265 259 237 250 259 257 255 263 256 243 230 226 229 234
233 188 206 247 272 312 307 299 294 305 308 309 306 301 281 275 282 285 295 300 300 302 303 301 289 283 285 293 291 284 274 256 252 262 267 264 252 247 253 249 239 234 232 225
214 194 199 239 237 233 273 288 298 303 301 299 301 307 299 277 276 286 290 292 295 300 303 302 290 283 287 292 293 293 280 248 239 264 265 258 256 253 249 257 276 258 252 258